Location: Krasnoyarskiy Pitomnik
(51.1333°N, 71.6167°E)
Time: 10:37:13
(UTC+00:00)

Altair - Pass Details

Date: 13 April 2024
Orbit: 1502 x 1682 km, 47.2° (Epoch: 23 May)

Event Time Altitude Azimuth Distance (km) Brightness Sun altitude
Rises 14:25:24 0° 194° (SSW) 4,898 10.1 -3.6°
Reaches altitude 10° 14:29:23 10° 181° (S) 3,894 9.4 -4.2°
Maximum altitude 14:36:41 24° 133° (SE) 2,906 8.4 -5.3°
Drops below altitude 10° 14:43:49 10° 85° (E) 3,806 9.0 -6.3°
Sets 14:47:37 0° 73° (ENE) 4,764 9.6 -6.8°
